Weather History for Buffalo, SD

Change the Weather History Date:

Saturday, July 14, 2012

  Actual Average Record
Temperature  
Mean Temperature 82 °F 71 °F  
Max Temperature 99 °F 85 °F 105 °F (2002)
Min Temperature 64 °F 58 °F 48 °F (2014)
Degree Days  
Heating Degree Days 0 1  
Month to date heating degree days 5 14  
Since 1 June heating degree days 39 128  
Since 1 July heating degree days 5 14  
Cooling Degree Days 17 7  
Month to date cooling degree days 171 79  
Year to date cooling degree days 360 147  
Since 1 June cooling degree days 345 141  
Growing Degree Days 31 (Base 50)    
Moisture  
Dew Point 56 °F    
Average Humidity 47    
Maximum Humidity 73    
Minimum Humidity 21    
Precipitation  
Precipitation 0.00 in 0.08 in 0.28 in (1998)
Month to date precipitation 1.36 1.01  
Year to date precipitation 5.92 9.68  
Sea Level Pressure  
Sea Level Pressure 29.84 in    
Wind  
Wind Speed 22 mph (ESE)    
Max Wind Speed 38 mph    
Max Gust Speed 48 mph    
T = Trace of Precipitation, MM = Missing Value Source: NWS Daily Summary

Daily Weather History Graph

Daily Weather History Graph

Search for Another Location

Airport:

Trip Planner

Search our weather history database for the weather conditions in past years. The results will help you decide how hot, cold, wet, or windy it might be!

Date:

Astronomy

Jul. 14, 2012 Rise Set
Actual Time 5:19 AM MDT 8:40 PM MDT
Civil Twilight 4:42 AM MDT 9:16 PM MDT
Nautical Twilight 3:54 AM MDT 10:04 PM MDT
Astronomical Twilight 2:53 AM MDT 11:04 PM MDT
Moon 1:36 AM MDT (7/14) 5:06 PM MDT (7/14)
Length of Visible Light 16h 34m
Length of Day
15h 21m
Waning Crescent, 18% of the Moon is Illuminated
Jul 14
Waning Crescent
Jul 18
New
Jul 26
First Quarter
Aug 1
Full
Aug 9
Last Quarter

Hourly Weather History & Observations

Time (MDT) Temp. Heat Index Dew Point Humidity Pressure Visibility Wind Dir Wind Speed Gust Speed Precip Events Conditions
12:56 AM 71.1 °F - 55.9 °F 59% 29.93 in - East 11.5 mph - N/A   Unknown
1:56 AM 71.1 °F - 55.0 °F 57% 29.92 in - East 12.7 mph - N/A   Unknown
2:56 AM 72.0 °F - 55.0 °F 55% 29.92 in - East 12.7 mph - N/A   Unknown
3:56 AM 69.1 °F - 55.0 °F 61% 29.93 in - East 11.5 mph - N/A   Unknown
4:56 AM 64.9 °F - 55.0 °F 70% 29.94 in - ENE 9.2 mph - N/A   Unknown
5:56 AM 69.1 °F - 55.0 °F 61% 29.92 in - ENE 8.1 mph - N/A   Unknown
6:56 AM 66.9 °F - 55.9 °F 68% 29.93 in - ENE 13.8 mph - N/A   Unknown
7:56 AM 71.1 °F - 57.0 °F 61% 29.92 in - East 19.6 mph - N/A   Unknown
8:56 AM 75.9 °F - 57.9 °F 54% 29.93 in - East 16.1 mph 25.3 mph N/A   Unknown
9:56 AM 82.9 °F 82.4 °F 57.0 °F 41% 29.89 in - ESE 24.2 mph 29.9 mph N/A   Unknown
10:56 AM 88.0 °F 86.9 °F 57.9 °F 36% 29.88 in - ESE 26.5 mph 34.5 mph N/A   Unknown
11:56 AM 93.0 °F 91.7 °F 57.0 °F 30% 29.84 in - ESE 25.3 mph 34.5 mph N/A   Unknown
12:56 PM 93.9 °F 92.2 °F 55.9 °F 28% 29.81 in - SE 29.9 mph 39.1 mph N/A   Unknown
1:56 PM 95.0 °F 93.0 °F 55.0 °F 26% 29.78 in - SE 27.6 mph 40.3 mph N/A   Unknown
2:56 PM 98.1 °F 95.7 °F 53.1 °F 22% 29.75 in - SE 28.8 mph 43.7 mph N/A   Unknown
3:56 PM 98.1 °F - 52.0 °F 21% 29.72 in - ESE 28.8 mph 43.7 mph N/A   Unknown
4:56 PM 86.0 °F 84.9 °F 57.0 °F 37% 29.75 in - SSE 27.6 mph 48.3 mph N/A   Unknown
5:56 PM 82.9 °F 82.8 °F 59.0 °F 44% 29.79 in - ESE 16.1 mph 26.5 mph N/A   Unknown
6:56 PM 81.0 °F 81.1 °F 57.9 °F 45% 29.78 in - ESE 27.6 mph 36.8 mph N/A   Unknown
7:56 PM 79.0 °F - 57.0 °F 47% 29.76 in - East 27.6 mph 36.8 mph N/A   Unknown
8:56 PM 78.1 °F - 57.9 °F 50% 29.78 in - ESE 21.9 mph 31.1 mph N/A   Unknown
9:56 PM 79.0 °F - 57.9 °F 48% 29.76 in - ESE 26.5 mph 36.8 mph N/A   Unknown
10:56 PM 78.1 °F - 57.0 °F 48% 29.74 in - ESE 26.5 mph 39.1 mph N/A   Unknown
11:56 PM 77.0 °F - 60.1 °F 56% 29.72 in - ESE 27.6 mph 41.4 mph N/A   Unknown